Preview of NWS' New Version of Forecast
This preview is not operational and should not be used for support decisions.

Regional Weather Roundup (RWR)

Issued by National Weather Service (NWS)

                            
000
ASUS45 KBOI 211610
RWRID 

IDAHO REGIONAL WEATHER ROUNDUP
NATIONAL WEATHER SERVICE BOISE ID
1000 AM MDT SAT SEP 21 2019

NOTE: "FAIR" INDICATES FEW OR NO CLOUDS BELOW 12000 FEET
WITH NO SIGNIFICANT WEATHER AND/OR OBSTRUCTIONS TO VISIBILITY

IDZ012-014-211700-
SOUTHWEST IDAHO

  
CITY           SKY/WX    TMP DP  RH WIND       PRES   REMARKS
BOISE          SUNNY     54  44  69 NW5       30.17R                  
CALDWELL       SUNNY     54  45  71 CALM      30.18R                  
MOUNTAIN HOME  MOSUNNY   55  49  81 NW9       30.17R                  
$$

IDZ016-017-211700-
SOUTHCENTRAL IDAHO

  
CITY           SKY/WX    TMP DP  RH WIND       PRES   REMARKS
BURLEY         SUNNY     52  40  63 W14       30.17S                  
JEROME         SUNNY     50  41  71 W13       30.19R                  
TWIN FALLS     SUNNY     52  40  63 SW13      30.19R                  
$$

IDZ019>023-211700-
SOUTHEAST IDAHO

  
CITY           SKY/WX    TMP DP  RH WIND       PRES   REMARKS
IDAHO FALLS    CLOUDY    47  41  80 SW17      30.18R                  
POCATELLO      PTSUNNY   50  41  71 SW16      30.19R                  
REXBURG        CLOUDY    46  41  82 SW10      30.18R                  
$$

IDZ006-010-011-018-031-032-211700-
CENTRAL IDAHO MOUNTAINS

  
CITY           SKY/WX    TMP DP  RH WIND       PRES   REMARKS
MCCALL         CLOUDY    42  38  85 CALM      30.18R                  
HAILEY         PTSUNNY   43  37  81 NW7       30.18S                  
STANLEY          N/A     42  33  70 CALM      30.22S                  
SALMON         LGT RAIN  49  46  90 N3        30.17R                  
CHALLIS        CLOUDY    49  38  65 S3        30.17S                  
$$

IDZ002-004-006-007-026-211700-
NORTHERN IDAHO

  
CITY           SKY/WX    TMP DP  RH WIND       PRES   REMARKS
LEWISTON       CLOUDY    57  53  86 CALM      30.13R                  
LOWELL           N/A     55  53  93 CALM      30.16R                  
COEUR D'ALENE  MOSUNNY   52  47  83 S7        30.13S                  
MULLAN PASS    FOG       41  40  96 VRB5      30.14S VSB 1/4          
$$